Time,TemperatureF,DewpointF,PressureIn,WindDirection,WindDirectionDegrees,WindSpeedMPH,WindSpeedGustMPH,Humidity,HourlyPrecipIn,Conditions,Clouds,dailyrainin,SoftwareType,DateUTC
2013-03-06 00:01:00,26.0,18.0,30.13,NE,44,0.0,-999.0,70,-99.99,,,-99.99,,2013-03-06 07:01:00,
2013-03-06 00:11:00,26.0,18.0,30.13,NE,44,0.0,-999.0,70,-99.99,,,-99.99,,2013-03-06 07:11:00,
2013-03-06 00:22:00,26.0,18.0,30.13,NE,44,3.0,-999.0,71,-99.99,,,-99.99,,2013-03-06 07:22:00,
2013-03-06 00:31:00,25.0,17.0,30.13,NE,44,4.0,-999.0,71,-99.99,,,-99.99,,2013-03-06 07:31:00,
2013-03-06 00:42:00,25.0,17.0,30.13,NE,44,4.0,-999.0,71,-99.99,,,-99.99,,2013-03-06 07:42:00,
2013-03-06 00:52:00,26.0,18.0,30.12,NE,44,3.0,-999.0,71,-99.99,,,-99.99,,2013-03-06 07:52:00,
2013-03-06 01:01:00,25.0,17.0,30.12,NE,44,0.0,-999.0,71,-99.99,,,-99.99,,2013-03-06 08:01:00,
2013-03-06 01:11:00,25.0,17.0,30.12,NE,44,0.0,-999.0,71,-99.99,,,-99.99,,2013-03-06 08:11:00,
2013-03-06 01:21:00,25.0,17.0,30.11,NE,44,0.0,-999.0,72,-99.99,,,-99.99,,2013-03-06 08:21:00,
2013-03-06 01:32:00,25.0,18.0,30.11,NE,44,1.0,-999.0,73,-99.99,,,-99.99,,2013-03-06 08:32:00,
2013-03-06 01:42:00,25.0,18.0,30.11,NE,44,1.0,-999.0,73,-99.99,,,-99.99,,2013-03-06 08:42:00,
2013-03-06 01:52:00,25.0,18.0,30.13,NE,44,3.0,-999.0,73,-99.99,,,-99.99,,2013-03-06 08:52:00,
2013-03-06 02:01:00,22.0,16.0,30.13,NNW,343,2.0,-999.0,78,-99.99,,,-99.99,,2013-03-06 09:01:00,
2013-03-06 02:12:00,22.0,16.0,30.13,NNW,343,2.0,-999.0,78,-99.99,,,-99.99,,2013-03-06 09:12:00,
2013-03-06 02:21:00,22.0,16.0,30.10,NNW,343,2.0,-999.0,78,-99.99,,,-99.99,,2013-03-06 09:21:00,
2013-03-06 02:31:00,22.0,16.0,30.10,NNW,343,1.0,-999.0,78,-99.99,,,-99.99,,2013-03-06 09:31:00,
2013-03-06 02:42:00,22.0,16.0,30.10,NNW,343,1.0,-999.0,78,-99.99,,,-99.99,,2013-03-06 09:42:00,
2013-03-06 02:52:00,22.0,16.0,30.09,NNW,343,0.0,-999.0,78,-99.99,,,-99.99,,2013-03-06 09:52:00,
2013-03-06 03:01:00,22.0,16.0,30.09,NNW,343,0.0,-999.0,78,-99.99,,,-99.99,,2013-03-06 10:01:00,
2013-03-06 03:11:00,22.0,16.0,30.09,NNW,343,0.0,-999.0,78,-99.99,,,-99.99,,2013-03-06 10:11:00,
2013-03-06 03:21:00,22.0,16.0,30.09,NNW,343,1.0,-999.0,79,-99.99,,,-99.99,,2013-03-06 10:21:00,
2013-03-06 03:31:00,22.0,16.0,30.09,NNW,343,1.0,-999.0,79,-99.99,,,-99.99,,2013-03-06 10:31:00,
2013-03-06 03:42:00,22.0,16.0,30.09,NNW,343,1.0,-999.0,79,-99.99,,,-99.99,,2013-03-06 10:42:00,
2013-03-06 03:52:00,21.0,16.0,30.07,NNW,343,2.0,-999.0,81,-99.99,,,-99.99,,2013-03-06 10:52:00,
2013-03-06 04:02:00,21.0,16.0,30.07,NNW,343,0.0,-999.0,81,-99.99,,,-99.99,,2013-03-06 11:02:00,
2013-03-06 04:11:00,21.0,16.0,30.07,NNW,343,0.0,-999.0,81,-99.99,,,-99.99,,2013-03-06 11:11:00,
2013-03-06 04:22:00,21.0,16.0,30.07,NNW,343,0.0,-999.0,80,-99.99,,,-99.99,,2013-03-06 11:22:00,
2013-03-06 04:32:00,21.0,16.0,30.07,NNW,343,0.0,-999.0,81,-99.99,,,-99.99,,2013-03-06 11:32:00,
2013-03-06 04:42:00,21.0,16.0,30.07,NNW,343,0.0,-999.0,81,-99.99,,,-99.99,,2013-03-06 11:42:00,
2013-03-06 04:52:00,20.0,15.0,30.07,NNW,343,0.0,-999.0,81,-99.99,,,-99.99,,2013-03-06 11:52:00,
2013-03-06 05:02:00,20.0,15.0,30.07,NNW,343,0.0,-999.0,81,-99.99,,,-99.99,,2013-03-06 12:02:00,
2013-03-06 05:11:00,20.0,15.0,30.07,NNW,343,0.0,-999.0,81,-99.99,,,-99.99,,2013-03-06 12:11:00,
2013-03-06 05:21:00,20.0,15.0,30.06,NNW,343,2.0,-999.0,81,-99.99,,,-99.99,,2013-03-06 12:21:00,
2013-03-06 05:32:00,19.0,14.0,30.06,NNW,343,1.0,-999.0,79,-99.99,,,-99.99,,2013-03-06 12:32:00,
2013-03-06 05:42:00,19.0,14.0,30.06,NNW,343,1.0,-999.0,79,-99.99,,,-99.99,,2013-03-06 12:42:00,
2013-03-06 05:52:00,19.0,14.0,30.07,NNW,343,1.0,-999.0,82,-99.99,,,-99.99,,2013-03-06 12:52:00,
2013-03-06 06:02:00,19.0,14.0,30.07,NNW,343,2.0,-999.0,82,-99.99,,,-99.99,,2013-03-06 13:02:00,
2013-03-06 06:11:00,19.0,14.0,30.07,NNW,343,2.0,-999.0,82,-99.99,,,-99.99,,2013-03-06 13:11:00,
2013-03-06 06:22:00,19.0,15.0,30.06,NNW,343,0.0,-999.0,84,-99.99,,,-99.99,,2013-03-06 13:22:00,
2013-03-06 06:32:00,19.0,14.0,30.06,NNW,343,0.0,-999.0,81,-99.99,,,-99.99,,2013-03-06 13:32:00,
2013-03-06 06:42:00,19.0,14.0,30.06,NNW,343,0.0,-999.0,81,-99.99,,,-99.99,,2013-03-06 13:42:00,
2013-03-06 06:52:00,19.0,15.0,30.06,NNW,343,1.0,-999.0,83,-99.99,,,-99.99,,2013-03-06 13:52:00,
2013-03-06 07:01:00,19.0,15.0,30.06,NNW,343,0.0,-999.0,83,-99.99,,,-99.99,,2013-03-06 14:01:00,
2013-03-06 07:11:00,19.0,15.0,30.06,NNW,343,0.0,-999.0,83,-99.99,,,-99.99,,2013-03-06 14:11:00,
2013-03-06 07:22:00,20.0,15.0,30.05,NNW,343,0.0,-999.0,81,-99.99,,,-99.99,,2013-03-06 14:22:00,
2013-03-06 07:32:00,21.0,16.0,30.05,NNW,343,2.0,-999.0,80,-99.99,,,-99.99,,2013-03-06 14:32:00,
2013-03-06 07:42:00,21.0,16.0,30.05,NNW,343,2.0,-999.0,80,-99.99,,,-99.99,,2013-03-06 14:42:00,
2013-03-06 07:52:00,23.0,17.0,30.05,NNW,343,1.0,-999.0,77,-99.99,,,-99.99,,2013-03-06 14:52:00,
2013-03-06 08:02:00,26.0,19.0,30.05,NNW,343,2.0,-999.0,76,-99.99,,,-99.99,,2013-03-06 15:02:00,
2013-03-06 08:11:00,26.0,19.0,30.05,NNW,343,2.0,-999.0,76,-99.99,,,-99.99,,2013-03-06 15:11:00,
2013-03-06 08:21:00,31.0,22.0,30.04,NNW,343,0.0,-999.0,68,-99.99,,,-99.99,,2013-03-06 15:21:00,
2013-03-06 08:32:00,32.0,22.0,30.04,NNW,343,0.0,-999.0,65,-99.99,,,-99.99,,2013-03-06 15:32:00,
2013-03-06 08:42:00,32.0,22.0,30.04,NNW,343,0.0,-999.0,65,-99.99,,,-99.99,,2013-03-06 15:42:00,
2013-03-06 08:52:00,35.0,23.0,30.03,NNW,343,1.0,-999.0,61,-99.99,,,-99.99,,2013-03-06 15:52:00,
2013-03-06 09:01:00,36.0,23.0,30.03,NNW,343,1.0,-999.0,60,-99.99,,,-99.99,,2013-03-06 16:01:00,
2013-03-06 09:11:00,36.0,23.0,30.03,NNW,343,1.0,-999.0,60,-99.99,,,-99.99,,2013-03-06 16:11:00,
2013-03-06 09:21:00,37.0,24.0,30.05,NNW,343,0.0,-999.0,60,-99.99,,,-99.99,,2013-03-06 16:21:00,
2013-03-06 09:32:00,38.0,25.0,30.05,NNW,343,2.0,-999.0,58,-99.99,,,-99.99,,2013-03-06 16:32:00,
2013-03-06 09:42:00,38.0,25.0,30.05,NNW,343,2.0,-999.0,58,-99.99,,,-99.99,,2013-03-06 16:42:00,
2013-03-06 09:52:00,41.0,26.0,30.04,NNW,343,0.0,-999.0,55,-99.99,,,-99.99,,2013-03-06 16:52:00,
2013-03-06 10:01:00,40.0,24.0,30.04,NNW,343,0.0,-999.0,52,-99.99,,,-99.99,,2013-03-06 17:01:00,
2013-03-06 10:11:00,40.0,24.0,30.04,NNW,343,0.0,-999.0,52,-99.99,,,-99.99,,2013-03-06 17:11:00,
2013-03-06 10:22:00,38.0,24.0,30.03,NNW,343,2.0,-999.0,56,-99.99,,,-99.99,,2013-03-06 17:22:00,
2013-03-06 10:32:00,39.0,25.0,30.03,NNW,344,3.0,-999.0,57,-99.99,,,-99.99,,2013-03-06 17:32:00,
2013-03-06 10:42:00,39.0,25.0,30.03,NNW,344,3.0,-999.0,57,-99.99,,,-99.99,,2013-03-06 17:42:00,
2013-03-06 10:52:00,43.0,27.0,30.02,North,5,2.0,-999.0,52,-99.99,,,-99.99,,2013-03-06 17:52:00,
2013-03-06 11:02:00,44.0,28.0,30.02,North,5,2.0,-999.0,52,-99.99,,,-99.99,,2013-03-06 18:02:00,
2013-03-06 11:28:00,37.0,24.0,30.01,NE,44,4.0,-999.0,59,-99.99,,,-99.99,,2013-03-06 18:28:00,
2013-03-06 11:42:00,38.0,26.0,30.01,NE,44,4.0,-999.0,61,-99.99,,,-99.99,,2013-03-06 18:42:00,
2013-03-06 11:52:00,41.0,27.0,29.99,NE,44,1.0,-999.0,57,-99.99,,,-99.99,,2013-03-06 18:52:00,
2013-03-06 12:02:00,42.0,27.0,29.99,NE,44,2.0,-999.0,55,-99.99,,,-99.99,,2013-03-06 19:02:00,
2013-03-06 12:11:00,42.0,27.0,29.99,NE,44,2.0,-999.0,55,-99.99,,,-99.99,,2013-03-06 19:11:00,
2013-03-06 12:21:00,45.0,24.0,29.98,NE,44,2.0,-999.0,43,-99.99,,,-99.99,,2013-03-06 19:21:00,
2013-03-06 12:32:00,46.0,21.0,29.98,NE,44,1.0,-999.0,37,-99.99,,,-99.99,,2013-03-06 19:32:00,
2013-03-06 12:43:00,46.0,21.0,29.98,NE,44,1.0,-999.0,37,-99.99,,,-99.99,,2013-03-06 19:43:00,
2013-03-06 12:53:00,47.0,17.0,29.96,NE,44,2.0,-999.0,30,-99.99,,,-99.99,,2013-03-06 19:53:00,
2013-03-06 13:01:00,48.0,18.0,29.96,NE,44,2.0,-999.0,30,-99.99,,,-99.99,,2013-03-06 20:01:00,
2013-03-06 13:11:00,48.0,18.0,29.96,NE,44,2.0,-999.0,30,-99.99,,,-99.99,,2013-03-06 20:11:00,
2013-03-06 13:22:00,50.0,19.0,29.93,NE,44,1.0,-999.0,29,-99.99,,,-99.99,,2013-03-06 20:22:00,
2013-03-06 13:32:00,51.0,23.0,29.93,NE,44,1.0,-999.0,33,-99.99,,,-99.99,,2013-03-06 20:32:00,
2013-03-06 13:42:00,51.0,23.0,29.93,NE,44,1.0,-999.0,33,-99.99,,,-99.99,,2013-03-06 20:42:00,
2013-03-06 13:53:00,52.0,22.0,29.91,NE,44,2.0,-999.0,31,-99.99,,,-99.99,,2013-03-06 20:53:00,
2013-03-06 14:02:00,53.0,23.0,29.91,NE,44,2.0,-999.0,31,-99.99,,,-99.99,,2013-03-06 21:02:00,
2013-03-06 14:11:00,53.0,23.0,29.91,NE,44,2.0,-999.0,31,-99.99,,,-99.99,,2013-03-06 21:11:00,
2013-03-06 14:22:00,54.0,22.0,29.90,NE,44,6.0,-999.0,28,-99.99,,,-99.99,,2013-03-06 21:22:00,
2013-03-06 14:32:00,55.0,23.0,29.90,NE,44,6.0,-999.0,28,-99.99,,,-99.99,,2013-03-06 21:32:00,
2013-03-06 14:42:00,55.0,23.0,29.90,NE,44,6.0,-999.0,28,-99.99,,,-99.99,,2013-03-06 21:42:00,
2013-03-06 14:52:00,55.0,25.0,29.91,NE,45,9.0,-999.0,31,-99.99,,,-99.99,,2013-03-06 21:52:00,
2013-03-06 15:01:00,55.0,23.0,29.91,NE,45,7.0,-999.0,28,-99.99,,,-99.99,,2013-03-06 22:01:00,
2013-03-06 15:11:00,55.0,23.0,29.91,NE,45,7.0,-999.0,28,-99.99,,,-99.99,,2013-03-06 22:11:00,
2013-03-06 15:21:00,58.0,9.0,29.89,East,92,5.0,-999.0,14,-99.99,,,-99.99,,2013-03-06 22:21:00,
2013-03-06 15:32:00,58.0,7.0,29.89,East,94,4.0,-999.0,13,-99.99,,,-99.99,,2013-03-06 22:32:00,
2013-03-06 15:41:00,58.0,7.0,29.89,East,94,4.0,-999.0,13,-99.99,,,-99.99,,2013-03-06 22:41:00,
2013-03-06 15:52:00,58.0,9.0,29.89,East,100,3.0,-999.0,14,-99.99,,,-99.99,,2013-03-06 22:52:00,
2013-03-06 16:01:00,58.0,9.0,29.89,East,100,5.0,-999.0,14,-99.99,,,-99.99,,2013-03-06 23:01:00,
2013-03-06 16:11:00,58.0,9.0,29.89,East,100,5.0,-999.0,14,-99.99,,,-99.99,,2013-03-06 23:11:00,
2013-03-06 16:21:00,57.0,10.0,29.87,East,101,6.0,-999.0,15,-99.99,,,-99.99,,2013-03-06 23:21:00,
2013-03-06 16:32:00,57.0,13.0,29.87,East,101,5.0,-999.0,17,-99.99,,,-99.99,,2013-03-06 23:32:00,
2013-03-06 16:42:00,57.0,13.0,29.87,East,101,5.0,-999.0,17,-99.99,,,-99.99,,2013-03-06 23:42:00,
2013-03-06 16:52:00,57.0,10.0,29.85,ESE,103,3.0,-999.0,15,-99.99,,,-99.99,,2013-03-06 23:52:00,
2013-03-06 17:01:00,57.0,11.0,29.85,ESE,103,5.0,-999.0,16,-99.99,,,-99.99,,2013-03-07 00:01:00,
2013-03-06 17:11:00,57.0,11.0,29.85,ESE,103,5.0,-999.0,16,-99.99,,,-99.99,,2013-03-07 00:11:00,
2013-03-06 17:21:00,56.0,12.0,29.85,ESE,103,3.0,-999.0,17,-99.99,,,-99.99,,2013-03-07 00:21:00,
2013-03-06 17:32:00,56.0,12.0,29.85,ESE,103,3.0,-999.0,17,-99.99,,,-99.99,,2013-03-07 00:32:00,
2013-03-06 17:41:00,56.0,12.0,29.85,ESE,103,3.0,-999.0,17,-99.99,,,-99.99,,2013-03-07 00:41:00,
2013-03-06 17:52:00,55.0,12.0,29.85,ESE,103,2.0,-999.0,18,-99.99,,,-99.99,,2013-03-07 00:52:00,
2013-03-06 18:01:00,54.0,15.0,29.85,ESE,103,1.0,-999.0,21,-99.99,,,-99.99,,2013-03-07 01:01:00,
2013-03-06 18:11:00,54.0,15.0,29.85,ESE,103,1.0,-999.0,21,-99.99,,,-99.99,,2013-03-07 01:11:00,
2013-03-06 18:21:00,53.0,17.0,29.84,ESE,103,0.0,-999.0,24,-99.99,,,-99.99,,2013-03-07 01:21:00,
2013-03-06 18:31:00,52.0,16.0,29.84,ESE,103,0.0,-999.0,24,-99.99,,,-99.99,,2013-03-07 01:31:00,
2013-03-06 18:41:00,52.0,16.0,29.84,ESE,103,0.0,-999.0,24,-99.99,,,-99.99,,2013-03-07 01:41:00,
2013-03-06 18:52:00,51.0,19.0,29.87,ESE,103,3.0,-999.0,28,-99.99,,,-99.99,,2013-03-07 01:52:00,
2013-03-06 19:01:00,50.0,20.0,29.87,ESE,103,0.0,-999.0,30,-99.99,,,-99.99,,2013-03-07 02:01:00,
2013-03-06 19:11:00,50.0,20.0,29.87,ESE,103,0.0,-999.0,30,-99.99,,,-99.99,,2013-03-07 02:11:00,
2013-03-06 19:21:00,48.0,19.0,29.87,ESE,103,0.0,-999.0,31,-99.99,,,-99.99,,2013-03-07 02:21:00,
2013-03-06 19:32:00,48.0,20.0,29.87,ESE,103,0.0,-999.0,33,-99.99,,,-99.99,,2013-03-07 02:32:00,
2013-03-06 19:41:00,48.0,20.0,29.87,ESE,103,0.0,-999.0,33,-99.99,,,-99.99,,2013-03-07 02:41:00,
2013-03-06 19:52:00,48.0,20.0,29.87,ESE,103,0.0,-999.0,33,-99.99,,,-99.99,,2013-03-07 02:52:00,
2013-03-06 20:02:00,46.0,21.0,29.86,ESE,103,1.0,-999.0,37,-99.99,,,-99.99,,2013-03-07 03:02:00,
2013-03-06 20:11:00,44.0,23.0,29.87,ESE,103,2.0,-999.0,44,-99.99,,,-99.99,,2013-03-07 03:11:00,
2013-03-06 20:21:00,44.0,23.0,29.87,ESE,103,2.0,-999.0,44,-99.99,,,-99.99,,2013-03-07 03:21:00,
2013-03-06 20:32:00,44.0,24.0,29.87,ESE,103,1.0,-999.0,45,-99.99,,,-99.99,,2013-03-07 03:32:00,
2013-03-06 20:42:00,44.0,24.0,29.87,ESE,103,1.0,-999.0,45,-99.99,,,-99.99,,2013-03-07 03:42:00,
2013-03-06 20:52:00,43.0,26.0,29.86,ESE,103,0.0,-999.0,50,-99.99,,,-99.99,,2013-03-07 03:52:00,
2013-03-06 21:01:00,43.0,26.0,29.86,ESE,103,0.0,-999.0,50,-99.99,,,-99.99,,2013-03-07 04:01:00,
2013-03-06 21:11:00,43.0,26.0,29.86,ESE,103,0.0,-999.0,50,-99.99,,,-99.99,,2013-03-07 04:11:00,
2013-03-06 21:21:00,42.0,25.0,29.86,ESE,103,0.0,-999.0,51,-99.99,,,-99.99,,2013-03-07 04:21:00,
2013-03-06 21:31:00,42.0,26.0,29.86,ESE,103,0.0,-999.0,52,-99.99,,,-99.99,,2013-03-07 04:31:00,
2013-03-06 21:42:00,42.0,26.0,29.86,ESE,103,0.0,-999.0,52,-99.99,,,-99.99,,2013-03-07 04:42:00,
2013-03-06 21:52:00,42.0,26.0,29.88,ESE,103,1.0,-999.0,53,-99.99,,,-99.99,,2013-03-07 04:52:00,
2013-03-06 22:01:00,40.0,26.0,29.88,ESE,103,2.0,-999.0,56,-99.99,,,-99.99,,2013-03-07 05:01:00,
2013-03-06 22:12:00,40.0,26.0,29.88,ESE,103,2.0,-999.0,56,-99.99,,,-99.99,,2013-03-07 05:12:00,
2013-03-06 22:22:00,38.0,25.0,29.88,ESE,104,4.0,-999.0,59,-99.99,,,-99.99,,2013-03-07 05:22:00,
2013-03-06 22:32:00,38.0,25.0,29.88,ESE,104,3.0,-999.0,59,-99.99,,,-99.99,,2013-03-07 05:32:00,
2013-03-06 22:42:00,38.0,25.0,29.88,ESE,104,3.0,-999.0,59,-99.99,,,-99.99,,2013-03-07 05:42:00,
2013-03-06 22:52:00,37.0,24.0,29.87,ESE,104,2.0,-999.0,60,-99.99,,,-99.99,,2013-03-07 05:52:00,
2013-03-06 23:01:00,37.0,25.0,29.87,ESE,104,2.0,-999.0,62,-99.99,,,-99.99,,2013-03-07 06:01:00,
2013-03-06 23:11:00,37.0,25.0,29.87,ESE,104,2.0,-999.0,62,-99.99,,,-99.99,,2013-03-07 06:11:00,
2013-03-06 23:21:00,38.0,26.0,29.87,ESE,106,3.0,-999.0,61,-99.99,,,-99.99,,2013-03-07 06:21:00,
2013-03-06 23:31:00,38.0,25.0,29.87,ESE,106,3.0,-999.0,60,-99.99,,,-99.99,,2013-03-07 06:31:00,
2013-03-06 23:42:00,36.0,25.0,29.87,ESE,106,1.0,-999.0,64,-99.99,,,-99.99,,2013-03-07 06:42:00,
2013-03-06 23:52:00,36.0,25.0,29.87,ESE,106,1.0,-999.0,64,-99.99,,,-99.99,,2013-03-07 06:52:00,